Погода в Йоле

Нигерия     9°12′25″N   12°28′47″E
темп.,
°C
ветер,
м/с
пор.,
м/с
влажн.,
%
обл.,
%
осадки,
мм/ч
давл.,
гПа
погр.,
м
27 января, ср
ср2701:00+23сз111932 0.0 101026
04:00+22ююв002035 0.0 100923
07:00+21с112135 0.0 101223
10:00+31в23120 0.0 1012675
13:00+37всв3696 0.0 10081747
16:00+38всв25871 0.0 10052448
19:00+30в121472 0.0 100724
22:00+26с111716 0.0 101056
28 января, чт
чт2801:00+23сз12168 0.0 100950
04:00+21з11160 0.0 100923
07:00+20ссз11170 0.0 101223
10:00+30вюв13100 0.0 1012648
13:00+36всв34710 0.0 10091632
16:00+38всв24759 0.0 10062099
19:00+30юз111063 0.0 100824
22:00+27с24132 0.0 101165
29 января, пт
пт2901:00+23зсз12151 0.0 101047
04:00+21юз111529 0.0 101023
07:00+20ссз121627 0.0 101326
10:00+30вюв131015 0.0 1013649
13:00+36всв4579 0.0 10101550
16:00+38св2570 0.0 10082342
19:00+29всв11129 0.0 100824
22:00+26сз12142 0.0 101124
30 января, сб
сб3001:00+22зсз01191 0.0 101123
04:00+20з11210 0.0 101123
07:00+19ссз12227 0.0 101323
10:00+29в23140 0.0 1013647
13:00+35всв4684 0.0 10101522
16:00+37св25764 0.0 10062298
19:00+29вюв221262 0.0 100824
22:00+25сз12149 0.0 101024
31 января, вс
вс3101:00+23сз11175 0.0 100923
04:00+20сз01220 0.0 100923
07:00+19сз11260 0.0 101123
10:00+29всв12154 0.0 1012642
13:00+36в3593 0.0 10081605
16:00+37всв2380 0.0 10062144
19:00+29зсз12130 0.0 100724
22:00+26ссз12150 0.0 100924